contact:dominique.lefevre@mio.osupytheas.fr, maurice.libes@osupytheas.fr, didier.mallarino@osupytheas.fr
Project:EMSO http://www.emso-fr.org/EMSO-France
Depth: 2436.0 m
Title:EMSO Ligure Ouest : Data MII capteur AQUADOPP
Date,Latitude,Longitude,X_East,Y_North,Z_Up,Amplitude_X,Amplitude_Y,Amplitude_Z,Batterie,SoundSpeed,Heading,Pitch,Roll,Pressure,TIS,Speed,Direction
, degrees North, degrees East, m.s-1, m.s-1,m.s-1, 1, 1, 1, Volt, m.s-1, degree, degree, degree, dbar, degree_C, m.s-1, degree
2023-10-27T00:04:03,42.805,6.029,-0.059,0.026,-0.016,105.0,104.0,102.0,13.4,1505.2,338.2,-0.7,1.8,2471.5,13.28,0.064,293.8
2023-10-27T00:07:03,42.805,6.029,-0.059,0.026,-0.023,104.0,103.0,102.0,13.4,1505.2,331.5,-0.8,1.8,2471.504,13.29,0.064,293.8
2023-10-27T00:10:03,42.805,6.029,-0.051,0.055,-0.013,105.0,103.0,103.0,13.4,1505.2,344.7,-0.8,1.8,2471.455,13.29,0.075,317.2
2023-10-27T00:13:03,42.805,6.029,-0.076,0.016,-0.019,104.0,102.0,103.0,13.4,1505.2,341.5,-0.7,1.8,2471.486,13.29,0.077,281.9
2023-10-27T00:16:03,42.805,6.029,-0.066,0.03,-0.029,105.0,103.0,101.0,13.3,1505.2,340.6,-0.8,1.8,2471.46,13.29,0.072,294.4
2023-10-27T00:19:03,42.805,6.029,-0.042,0.034,-0.018,103.0,104.0,102.0,13.3,1505.2,341.5,-0.7,1.8,2471.474,13.29,0.054,309.0
2023-10-27T00:22:03,42.805,6.029,-0.047,0.025,-0.025,105.0,102.0,103.0,13.3,1505.2,340.2,-0.8,1.8,2471.46,13.29,0.053,298.0
2023-10-27T00:25:03,42.805,6.029,-0.052,0.015,-0.03,104.0,104.0,103.0,13.4,1505.2,334.2,-0.7,1.9,2471.469,13.29,0.054,286.1
2023-10-27T00:28:03,42.805,6.029,-0.042,0.035,-0.047,105.0,104.0,102.0,13.4,1505.2,351.7,-0.8,1.8,2471.47,13.29,0.054,309.8
2023-10-27T00:31:03,42.805,6.029,-0.055,0.031,-0.039,104.0,103.0,102.0,13.4,1505.2,348.2,-0.8,1.8,2471.439,13.29,0.063,299.4
2023-10-27T00:34:03,42.805,6.029,-0.046,0.056,-0.017,104.0,103.0,102.0,13.4,1505.2,352.2,-0.8,1.8,2471.46,13.29,0.072,320.6
2023-10-27T00:37:03,42.805,6.029,-0.031,0.044,-0.012,105.0,104.0,103.0,13.4,1505.2,349.6,-0.8,1.8,2471.513,13.29,0.053,324.8
2023-10-27T00:40:03,42.805,6.029,-0.05,0.025,0.004,105.0,102.0,102.0,13.3,1505.2,339.6,-0.8,1.8,2471.466,13.29,0.055,296.6
2023-10-27T00:43:03,42.805,6.029,-0.051,0.04,-0.024,104.0,103.0,102.0,13.3,1505.2,345.5,-0.8,1.8,2471.486,13.29,0.064,308.1
2023-10-27T00:46:03,42.805,6.029,-0.077,0.047,-0.013,104.0,103.0,104.0,13.4,1505.2,343.8,-0.8,1.8,2471.448,13.29,0.09,301.4
2023-10-27T00:49:03,42.805,6.029,-0.056,0.027,-0.024,103.0,103.0,102.0,13.3,1505.2,342.5,-0.7,1.8,2471.48,13.29,0.062,295.7
2023-10-27T00:52:03,42.805,6.029,-0.061,0.03,-0.016,105.0,102.0,103.0,13.4,1505.2,331.1,-0.8,1.9,2471.461,13.29,0.067,296.2
2023-10-27T00:55:03,42.805,6.029,-0.043,0.057,-0.026,104.0,104.0,102.0,13.4,1505.2,359.0,-0.7,1.8,2471.493,13.29,0.071,323.0
2023-10-27T00:58:03,42.805,6.029,-0.055,0.053,0.003,103.0,104.0,103.0,13.3,1505.2,348.1,-0.8,1.8,2471.475,13.29,0.076,313.9
2023-10-27T01:04:03,42.805,6.029,-0.04,0.037,-0.013,105.0,104.0,103.0,13.4,1505.2,339.5,-0.8,1.8,2471.489,13.28,0.054,312.8
2023-10-27T01:07:03,42.805,6.029,-0.049,0.038,-0.006,103.0,104.0,102.0,13.3,1505.2,341.5,-0.8,1.8,2471.49,13.29,0.062,307.8
2023-10-27T01:10:03,42.805,6.029,-0.056,0.043,-0.066,104.0,103.0,102.0,13.3,1505.2,353.3,-0.8,1.8,2471.507,13.29,0.07,307.5
2023-10-27T01:13:03,42.805,6.029,-0.05,0.037,-0.013,104.0,104.0,102.0,13.3,1505.2,347.2,-0.8,1.8,2471.517,13.29,0.062,306.5
2023-10-27T01:16:03,42.805,6.029,-0.067,0.016,-0.01,104.0,104.0,103.0,13.3,1505.2,336.6,-0.8,1.8,2471.469,13.29,0.068,283.4
2023-10-27T01:19:03,42.805,6.029,-0.046,0.063,-0.019,103.0,103.0,102.0,13.4,1505.2,347.2,-0.8,1.8,2471.51,13.29,0.078,323.9
2023-10-27T01:22:03,42.805,6.029,-0.047,0.037,-0.027,104.0,103.0,102.0,13.3,1505.2,347.6,-0.8,1.8,2471.461,13.29,0.059,308.2
2023-10-27T01:25:03,42.805,6.029,-0.048,0.052,0.006,104.0,104.0,102.0,13.4,1505.2,350.0,-0.7,1.8,2471.485,13.29,0.07,317.3
2023-10-27T01:28:03,42.805,6.029,-0.032,0.038,-0.011,105.0,103.0,103.0,13.3,1505.2,351.0,-0.7,1.8,2471.48,13.29,0.049,319.9
2023-10-27T01:31:03,42.805,6.029,-0.068,0.057,-0.023,105.0,103.0,102.0,13.4,1505.2,352.1,-0.8,1.8,2471.482,13.29,0.088,310.0
2023-10-27T01:34:03,42.805,6.029,-0.044,0.04,-0.007,104.0,102.0,103.0,13.3,1505.2,342.5,-0.8,1.8,2471.454,13.29,0.059,312.3
2023-10-27T01:37:03,42.805,6.029,-0.068,0.038,0.005,104.0,103.0,102.0,13.4,1505.2,342.2,-0.8,1.8,2471.488,13.29,0.077,299.2
2023-10-27T01:40:03,42.805,6.029,-0.045,0.011,-0.036,103.0,104.0,103.0,13.4,1505.2,331.0,-0.8,1.8,2471.486,13.29,0.046,283.7
2023-10-27T01:43:03,42.805,6.029,-0.05,0.038,0.008,105.0,102.0,102.0,13.3,1505.2,344.7,-0.8,1.9,2471.479,13.29,0.062,307.2
2023-10-27T01:46:03,42.805,6.029,-0.022,0.03,-0.051,105.0,103.0,102.0,13.3,1505.2,350.3,-0.8,1.8,2471.527,13.29,0.037,323.7
2023-10-27T01:49:03,42.805,6.029,-0.055,0.023,-0.023,104.0,103.0,103.0,13.3,1505.2,336.0,-0.7,1.8,2471.481,13.29,0.059,292.7
2023-10-27T01:52:03,42.805,6.029,-0.066,0.042,-0.015,103.0,104.0,101.0,13.4,1505.2,345.9,-0.8,1.8,2471.499,13.29,0.078,302.5
2023-10-27T01:55:03,42.805,6.029,-0.061,0.044,-0.027,103.0,104.0,103.0,13.4,1505.2,343.7,-0.8,1.8,2471.487,13.29,0.075,305.8
2023-10-27T01:58:03,42.805,6.029,-0.031,0.044,-0.032,105.0,103.0,102.0,13.4,1505.2,352.9,-0.8,1.8,2471.496,13.29,0.053,324.8
2023-10-27T02:04:03,42.805,6.029,-0.044,0.019,-0.013,105.0,103.0,102.0,13.3,1505.2,342.9,-0.8,1.8,2471.536,13.28,0.047,293.4
2023-10-27T02:07:03,42.805,6.029,-0.054,0.056,-0.002,104.0,103.0,103.0,13.3,1505.2,351.8,-0.7,1.8,2471.56,13.29,0.077,316.0
2023-10-27T02:10:03,42.805,6.029,-0.064,0.014,-0.04,104.0,103.0,103.0,13.4,1505.2,344.1,-0.7,1.8,2471.51,13.29,0.065,282.3
2023-10-27T02:13:03,42.805,6.029,-0.05,0.044,-0.031,104.0,103.0,103.0,13.4,1505.2,341.8,-0.8,1.8,2471.565,13.29,0.066,311.3
2023-10-27T02:16:03,42.805,6.029,-0.061,0.05,-0.006,104.0,103.0,102.0,13.3,1505.2,347.6,-0.8,1.8,2471.542,13.29,0.078,309.3
2023-10-27T02:19:03,42.805,6.029,-0.037,0.028,-0.018,103.0,103.0,102.0,13.4,1505.2,333.4,-0.8,1.8,2471.515,13.29,0.046,307.1
2023-10-27T02:22:03,42.805,6.029,-0.054,0.032,-0.03,104.0,104.0,102.0,13.3,1505.2,330.5,-0.8,1.8,2471.494,13.29,0.062,300.7
2023-10-27T02:25:03,42.805,6.029,-0.057,0.049,-0.022,105.0,104.0,102.0,13.4,1505.2,334.1,-0.8,1.8,2471.522,13.29,0.075,310.7
2023-10-27T02:28:03,42.805,6.029,-0.075,0.024,0.006,104.0,104.0,102.0,13.3,1505.2,334.6,-0.8,1.8,2471.498,13.29,0.078,287.7
2023-10-27T02:31:03,42.805,6.029,-0.044,0.029,-0.014,103.0,103.0,102.0,13.4,1505.2,334.6,-0.8,1.8,2471.511,13.29,0.052,303.4
2023-10-27T02:34:03,42.805,6.029,-0.051,0.011,-0.006,105.0,103.0,102.0,13.3,1505.2,334.8,-0.7,1.8,2471.477,13.29,0.052,282.2
2023-10-27T02:37:03,42.805,6.029,-0.034,0.051,-0.02,103.0,104.0,103.0,13.4,1505.2,0.0,-0.8,1.8,2471.492,13.29,0.061,326.3
2023-10-27T02:40:03,42.805,6.029,-0.061,0.029,-0.016,104.0,103.0,102.0,13.4,1505.2,345.4,-0.8,1.8,2471.519,13.29,0.067,295.4
2023-10-27T02:43:03,42.805,6.029,-0.048,0.02,-0.029,104.0,103.0,102.0,13.4,1505.2,342.1,-0.8,1.9,2471.523,13.29,0.052,292.6
2023-10-27T02:46:03,42.805,6.029,-0.032,0.041,-0.013,103.0,104.0,102.0,13.3,1505.2,350.9,-0.8,1.8,2471.537,13.29,0.052,322.0
2023-10-27T02:49:03,42.805,6.029,-0.066,0.043,0.02,104.0,102.0,102.0,13.4,1505.2,334.3,-0.8,1.8,2471.503,13.29,0.078,303.1
2023-10-27T02:52:03,42.805,6.029,-0.087,0.042,-0.033,105.0,105.0,101.0,13.4,1505.2,330.6,-0.8,1.8,2471.533,13.29,0.096,295.8
2023-10-27T02:55:03,42.805,6.029,-0.073,0.015,-0.033,102.0,104.0,103.0,13.4,1505.2,333.8,-0.8,1.8,2471.542,13.29,0.074,281.6
2023-10-27T02:58:03,42.805,6.029,-0.076,0.058,-0.013,105.0,103.0,102.0,13.3,1505.2,337.8,-0.8,1.8,2471.534,13.29,0.095,307.3
2023-10-27T03:04:03,42.805,6.029,-0.06,0.036,0.034,104.0,103.0,102.0,13.4,1505.2,331.3,-0.8,1.8,2471.622,13.28,0.069,301.0
2023-10-27T03:07:03,42.805,6.029,-0.054,0.038,-0.013,104.0,104.0,102.0,13.4,1505.2,333.4,-0.8,1.8,2471.606,13.29,0.066,305.1
2023-10-27T03:10:03,42.805,6.029,-0.028,0.038,-0.009,105.0,103.0,102.0,13.4,1505.2,356.5,-0.8,1.8,2471.599,13.29,0.047,323.6
2023-10-27T03:13:03,42.805,6.029,-0.051,0.04,-0.015,105.0,103.0,101.0,13.3,1505.2,338.7,-0.8,1.8,2471.585,13.29,0.064,308.1
2023-10-27T03:16:03,42.805,6.029,-0.062,0.062,-0.053,104.0,104.0,102.0,13.4,1505.2,345.7,-0.8,1.8,2471.562,13.29,0.087,315.0
2023-10-27T03:19:03,42.805,6.029,-0.055,0.039,-0.012,104.0,103.0,104.0,13.4,1505.2,337.6,-0.7,1.8,2471.568,13.29,0.067,305.3
2023-10-27T03:22:03,42.805,6.029,-0.045,0.018,-0.027,104.0,103.0,102.0,13.3,1505.2,332.3,-0.8,1.8,2471.558,13.29,0.048,291.8
2023-10-27T03:25:03,42.805,6.029,-0.066,0.027,-0.017,104.0,103.0,102.0,13.4,1505.2,334.1,-0.8,1.8,2471.581,13.29,0.071,292.2
2023-10-27T03:28:03,42.805,6.029,-0.069,0.007,-0.037,103.0,103.0,103.0,13.3,1505.2,333.0,-0.8,1.8,2471.586,13.29,0.069,275.8
2023-10-27T03:31:03,42.805,6.029,-0.062,0.035,0.008,104.0,104.0,101.0,13.4,1505.2,345.9,-0.8,1.8,2471.57,13.29,0.071,299.4
2023-10-27T03:34:03,42.805,6.029,-0.029,0.04,-0.044,103.0,105.0,103.0,13.4,1505.2,352.7,-0.8,1.8,2471.603,13.29,0.049,324.1
2023-10-27T03:37:03,42.805,6.029,-0.043,0.052,0.004,104.0,104.0,103.0,13.4,1505.2,353.8,-0.8,1.8,2471.58,13.29,0.067,320.4
2023-10-27T03:40:03,42.805,6.029,-0.043,0.026,-0.01,104.0,103.0,103.0,13.4,1505.2,344.0,-0.8,1.8,2471.575,13.29,0.05,301.2
2023-10-27T03:43:03,42.805,6.029,-0.065,0.034,-0.015,104.0,103.0,102.0,13.4,1505.2,347.9,-0.8,1.8,2471.602,13.29,0.073,297.6
2023-10-27T03:46:03,42.805,6.029,-0.059,-0.006,-0.032,104.0,104.0,102.0,13.4,1505.2,338.5,-0.8,1.8,2471.567,13.29,0.059,264.2
2023-10-27T03:49:03,42.805,6.029,-0.042,0.051,0.0,103.0,104.0,102.0,13.4,1505.2,335.6,-0.8,1.8,2471.631,13.29,0.066,320.5
2023-10-27T03:52:03,42.805,6.029,-0.046,0.056,-0.009,103.0,104.0,103.0,13.3,1505.2,354.8,-0.8,1.9,2471.612,13.29,0.072,320.6
2023-10-27T03:55:03,42.805,6.029,-0.072,0.055,-0.018,104.0,104.0,103.0,13.4,1505.2,339.2,-0.8,1.8,2471.605,13.29,0.09,307.4
2023-10-27T03:58:03,42.805,6.029,-0.071,0.025,-0.023,104.0,104.0,102.0,13.3,1505.2,334.2,-0.8,1.8,2471.602,13.29,0.075,289.4
2023-10-27T04:04:03,42.805,6.029,-0.051,0.061,0.022,104.0,103.0,102.0,13.4,1505.2,348.8,-0.8,1.8,2471.62,13.28,0.079,320.1
2023-10-27T04:07:03,42.805,6.029,-0.042,0.018,-0.011,105.0,103.0,103.0,13.4,1505.2,335.4,-0.7,1.8,2471.649,13.29,0.045,293.2
2023-10-27T04:10:03,42.805,6.029,-0.052,0.05,-0.039,105.0,104.0,101.0,13.3,1505.2,347.6,-0.8,1.8,2471.644,13.29,0.072,313.9
2023-10-27T04:13:03,42.805,6.029,-0.055,0.056,-0.044,105.0,104.0,102.0,13.3,1505.2,351.0,-0.8,1.8,2471.619,13.29,0.078,315.5
2023-10-27T04:16:03,42.805,6.029,-0.063,0.047,-0.041,103.0,104.0,102.0,13.3,1505.2,341.0,-0.7,1.8,2471.621,13.29,0.078,306.7
2023-10-27T04:19:03,42.805,6.029,-0.049,0.036,-0.034,104.0,104.0,101.0,13.3,1505.2,333.8,-0.8,1.8,2471.625,13.29,0.06,306.3
2023-10-27T04:22:03,42.805,6.029,-0.062,0.045,-0.024,104.0,103.0,103.0,13.3,1505.2,331.1,-0.7,1.8,2471.651,13.29,0.076,306.0
2023-10-27T04:25:03,42.805,6.029,-0.043,0.02,-0.017,104.0,104.0,102.0,13.4,1505.2,344.9,-0.8,1.8,2471.597,13.29,0.047,294.9
2023-10-27T04:28:03,42.805,6.029,-0.031,0.042,-0.015,104.0,104.0,103.0,13.4,1505.2,347.6,-0.8,1.8,2471.644,13.29,0.052,323.6
2023-10-27T04:31:03,42.805,6.029,-0.063,0.018,-0.026,104.0,104.0,102.0,13.4,1505.2,333.0,-0.8,1.8,2471.622,13.29,0.065,285.9
2023-10-27T04:34:03,42.805,6.029,-0.065,0.042,-0.007,105.0,104.0,102.0,13.3,1505.2,329.9,-0.7,1.8,2471.604,13.29,0.077,302.9
2023-10-27T04:37:03,42.805,6.029,-0.075,0.029,-0.013,105.0,104.0,102.0,13.3,1505.2,331.9,-0.8,1.8,2471.639,13.29,0.08,291.1
2023-10-27T04:40:03,42.805,6.029,-0.07,0.026,-0.042,105.0,104.0,102.0,13.4,1505.2,337.1,-0.8,1.8,2471.614,13.29,0.074,290.4
2023-10-27T04:43:03,42.805,6.029,-0.048,0.052,-0.02,104.0,104.0,103.0,13.4,1505.2,334.8,-0.7,1.8,2471.665,13.29,0.07,317.3
2023-10-27T04:46:06,42.805,6.029,-0.077,0.052,-0.048,104.0,105.0,102.0,13.4,1505.2,341.3,-0.7,1.8,2471.619,13.29,0.092,304.0
2023-10-27T04:49:03,42.805,6.029,-0.075,0.04,-0.013,105.0,103.0,103.0,13.4,1505.2,337.5,-0.8,1.8,2471.623,13.29,0.084,298.1
2023-10-27T04:52:03,42.805,6.029,-0.052,0.002,-0.023,105.0,103.0,102.0,13.3,1505.2,337.8,-0.8,1.8,2471.633,13.29,0.052,272.2
2023-10-27T04:55:03,42.805,6.029,-0.054,0.021,-0.018,105.0,103.0,103.0,13.4,1505.2,330.7,-0.8,1.8,2471.643,13.29,0.057,291.2
2023-10-27T04:58:03,42.805,6.029,-0.082,0.041,-0.018,104.0,104.0,102.0,13.3,1505.2,334.9,-0.8,1.8,2471.67,13.29,0.091,296.6
2023-10-27T05:04:03,42.805,6.029,-0.039,0.024,-0.031,105.0,103.0,102.0,13.4,1505.2,342.0,-0.7,1.8,2471.695,13.28,0.045,301.6
2023-10-27T05:07:03,42.805,6.029,-0.06,0.036,-0.001,105.0,103.0,102.0,13.4,1505.2,346.9,-0.8,1.8,2471.686,13.29,0.069,301.0
2023-10-27T05:10:03,42.805,6.029,-0.055,0.044,-0.006,105.0,104.0,103.0,13.3,1505.2,341.8,-0.7,1.8,2471.667,13.29,0.07,308.7
2023-10-27T05:13:03,42.805,6.029,-0.056,0.052,-0.034,104.0,104.0,102.0,13.3,1505.2,346.1,-0.8,1.8,2471.67,13.29,0.076,312.9
2023-10-27T05:16:03,42.805,6.029,-0.071,0.036,-0.028,103.0,104.0,102.0,13.4,1505.2,344.0,-0.8,1.9,2471.705,13.29,0.079,296.9
2023-10-27T05:19:03,42.805,6.029,-0.039,0.04,-0.008,103.0,105.0,102.0,13.3,1505.2,338.9,-0.8,1.8,2471.685,13.29,0.055,315.7
2023-10-27T05:22:03,42.805,6.029,-0.046,0.051,-0.007,104.0,104.0,102.0,13.4,1505.2,337.3,-0.8,1.8,2471.69,13.29,0.068,318.0
2023-10-27T05:25:03,42.805,6.029,-0.044,0.032,-0.005,103.0,104.0,102.0,13.4,1505.2,344.7,-0.8,1.8,2471.661,13.29,0.054,306.0
2023-10-27T05:28:03,42.805,6.029,-0.047,0.028,-0.036,104.0,104.0,102.0,13.3,1505.2,335.0,-0.8,1.8,2471.664,13.29,0.054,300.8
2023-10-27T05:31:03,42.805,6.029,-0.054,0.059,-0.01,104.0,103.0,102.0,13.4,1505.2,351.8,-0.7,1.9,2471.644,13.29,0.079,317.5
2023-10-27T05:34:03,42.805,6.029,-0.063,0.059,0.006,104.0,103.0,101.0,13.4,1505.2,342.8,-0.8,1.8,2471.643,13.29,0.086,313.1
2023-10-27T05:37:03,42.805,6.029,-0.042,0.049,-0.027,104.0,103.0,102.0,13.4,1505.2,350.6,-0.8,1.8,2471.671,13.29,0.064,319.4
2023-10-27T05:40:03,42.805,6.029,-0.064,0.051,-0.012,104.0,103.0,103.0,13.4,1505.2,337.8,-0.8,1.8,2471.657,13.29,0.081,308.6
2023-10-27T05:43:03,42.805,6.029,-0.051,0.045,0.011,105.0,103.0,102.0,13.4,1505.2,353.3,-0.8,1.8,2471.648,13.29,0.068,311.4
2023-10-27T05:46:03,42.805,6.029,-0.061,0.049,-0.036,104.0,104.0,102.0,13.3,1505.2,332.3,-0.7,1.8,2471.632,13.29,0.078,308.8
2023-10-27T05:49:03,42.805,6.029,-0.022,0.05,-0.001,104.0,103.0,102.0,13.4,1505.2,352.1,-0.8,1.8,2471.664,13.29,0.054,336.3
2023-10-27T05:52:03,42.805,6.029,-0.066,0.053,-0.032,104.0,104.0,102.0,13.3,1505.2,346.7,-0.8,1.9,2471.662,13.29,0.084,308.8
2023-10-27T05:55:03,42.805,6.029,-0.054,0.026,-0.024,104.0,103.0,102.0,13.4,1505.2,333.4,-0.7,1.8,2471.636,13.29,0.059,295.7
2023-10-27T05:58:03,42.805,6.029,-0.063,0.041,-0.033,104.0,104.0,103.0,13.4,1505.2,334.2,-0.7,1.8,2471.631,13.29,0.075,303.1
2023-10-27T06:04:03,42.805,6.029,-0.032,0.024,0.03,104.0,103.0,102.0,13.4,1505.2,349.6,-0.8,1.8,2471.702,13.28,0.04,306.9
2023-10-27T06:07:03,42.805,6.029,-0.051,0.035,-0.012,104.0,104.0,102.0,13.4,1505.2,341.2,-0.7,1.8,2471.691,13.29,0.061,304.5
2023-10-27T06:10:03,42.805,6.029,-0.053,0.045,-0.02,103.0,103.0,102.0,13.4,1505.2,343.2,-0.8,1.8,2471.704,13.29,0.069,310.3
2023-10-27T06:13:03,42.805,6.029,-0.08,0.04,-0.007,104.0,104.0,102.0,13.4,1505.2,336.3,-0.8,1.8,2471.694,13.29,0.089,296.6
2023-10-27T06:16:03,42.805,6.029,-0.048,0.046,-0.042,104.0,103.0,102.0,13.4,1505.2,341.5,-0.8,1.8,2471.663,13.29,0.066,313.8
2023-10-27T06:19:03,42.805,6.029,-0.053,0.052,-0.042,103.0,104.0,102.0,13.3,1505.2,351.3,-0.8,1.8,2471.681,13.29,0.074,314.5
2023-10-27T06:22:03,42.805,6.029,-0.044,0.049,-0.01,104.0,103.0,103.0,13.4,1505.2,347.2,-0.8,1.8,2471.684,13.29,0.065,318.1
2023-10-27T06:25:03,42.805,6.029,-0.051,0.021,-0.017,105.0,103.0,103.0,13.3,1505.2,331.4,-0.8,1.8,2471.706,13.29,0.055,292.4
2023-10-27T06:28:03,42.805,6.029,-0.041,0.048,-0.017,104.0,105.0,102.0,13.3,1505.2,344.7,-0.8,1.8,2471.704,13.29,0.063,319.5
2023-10-27T06:31:03,42.805,6.029,-0.06,0.058,-0.015,103.0,104.0,102.0,13.4,1505.2,341.0,-0.8,1.8,2471.672,13.29,0.083,314.0
2023-10-27T06:34:03,42.805,6.029,-0.061,0.056,-0.023,104.0,105.0,103.0,13.4,1505.2,345.1,-0.8,1.8,2471.685,13.29,0.082,312.6
2023-10-27T06:37:03,42.805,6.029,-0.05,0.068,-0.013,104.0,103.0,102.0,13.4,1505.2,357.1,-0.8,1.8,2471.661,13.29,0.084,323.7
2023-10-27T06:40:03,42.805,6.029,-0.043,0.029,-0.034,104.0,104.0,102.0,13.3,1505.2,352.7,-0.7,1.8,2471.642,13.29,0.051,304.0
2023-10-27T06:43:03,42.805,6.029,-0.065,0.053,0.0,103.0,103.0,103.0,13.3,1505.2,337.6,-0.8,1.8,2471.673,13.29,0.083,309.2
2023-10-27T06:46:03,42.805,6.029,-0.063,0.054,-0.035,104.0,102.0,103.0,13.3,1505.2,350.8,-0.7,1.8,2471.668,13.29,0.082,310.6
2023-10-27T06:49:03,42.805,6.029,-0.036,0.034,-0.025,104.0,104.0,103.0,13.3,1505.2,350.8,-0.7,1.8,2471.654,13.29,0.049,313.4
2023-10-27T06:52:03,42.805,6.029,-0.071,0.042,-0.019,104.0,102.0,102.0,13.4,1505.2,333.4,-0.8,1.8,2471.672,13.29,0.082,300.6
2023-10-27T06:55:03,42.805,6.029,-0.086,0.036,-0.042,103.0,103.0,102.0,13.4,1505.2,339.2,-0.7,1.8,2471.72,13.29,0.093,292.7
2023-10-27T06:58:03,42.805,6.029,-0.067,0.065,-0.03,104.0,103.0,102.0,13.4,1505.2,352.8,-0.8,1.8,2471.707,13.29,0.093,314.1
2023-10-27T07:04:03,42.805,6.029,-0.045,0.006,0.021,103.0,103.0,102.0,13.4,1505.2,332.6,-0.8,1.8,2471.722,13.28,0.045,277.6
2023-10-27T07:07:03,42.805,6.029,-0.048,0.038,-0.003,104.0,104.0,102.0,13.4,1505.2,339.4,-0.8,1.8,2471.71,13.29,0.061,308.4
2023-10-27T07:10:03,42.805,6.029,-0.066,0.032,-0.025,104.0,103.0,103.0,13.4,1505.2,333.8,-0.7,1.8,2471.702,13.29,0.073,295.9
2023-10-27T07:13:03,42.805,6.029,-0.048,0.05,-0.054,104.0,104.0,101.0,13.4,1505.2,349.3,-0.8,1.8,2471.699,13.29,0.069,316.2
2023-10-27T07:16:03,42.805,6.029,-0.034,0.03,-0.048,105.0,102.0,102.0,13.4,1505.2,336.6,-0.8,1.8,2471.666,13.29,0.045,311.4
2023-10-27T07:19:03,42.805,6.029,-0.067,0.05,-0.001,103.0,104.0,103.0,13.4,1505.2,333.0,-0.7,1.8,2471.647,13.29,0.083,306.7
2023-10-27T07:22:03,42.805,6.029,-0.065,0.014,-0.042,103.0,104.0,101.0,13.4,1505.2,335.9,-0.8,1.9,2471.638,13.29,0.066,282.2
2023-10-27T07:25:03,42.805,6.029,-0.048,0.029,-0.009,105.0,102.0,103.0,13.3,1505.2,333.4,-0.7,1.8,2471.644,13.29,0.056,301.1
2023-10-27T07:28:03,42.805,6.029,-0.04,0.014,-0.022,103.0,102.0,102.0,13.4,1505.2,337.3,-0.8,1.8,2471.671,13.29,0.042,289.3
2023-10-27T07:31:03,42.805,6.029,-0.039,0.014,-0.035,105.0,104.0,102.0,13.3,1505.2,337.7,-0.8,1.8,2471.615,13.29,0.041,289.7
2023-10-27T07:34:03,42.805,6.029,-0.031,0.039,-0.014,105.0,104.0,101.0,13.4,1505.2,0.0,-0.8,1.8,2471.615,13.29,0.049,321.5
2023-10-27T07:37:03,42.805,6.029,-0.052,0.024,-0.033,105.0,101.0,102.0,13.3,1505.2,345.0,-0.8,1.8,2471.655,13.29,0.057,294.8
2023-10-27T07:40:03,42.805,6.029,-0.066,0.028,-0.049,104.0,102.0,102.0,13.4,1505.2,342.2,-0.8,1.8,2471.698,13.29,0.071,293.0
2023-10-27T07:43:03,42.805,6.029,-0.03,0.031,-0.026,105.0,102.0,102.0,13.3,1505.2,344.4,-0.8,1.8,2471.619,13.29,0.043,315.9
2023-10-27T07:46:03,42.805,6.029,-0.071,0.003,-0.07,103.0,104.0,102.0,13.4,1505.2,335.2,-0.8,1.8,2471.639,13.29,0.071,272.4
2023-10-27T07:49:03,42.805,6.029,-0.034,0.059,-0.008,103.0,103.0,103.0,13.4,1505.2,352.7,-0.8,1.8,2471.662,13.29,0.068,330.0
2023-10-27T07:52:03,42.805,6.029,-0.056,0.038,-0.043,104.0,103.0,103.0,13.4,1505.2,352.6,-0.7,1.9,2471.614,13.29,0.067,304.2
2023-10-27T07:55:03,42.805,6.029,-0.057,0.032,-0.008,104.0,104.0,102.0,13.4,1505.2,347.0,-0.7,1.8,2471.635,13.29,0.065,299.3
2023-10-27T07:58:03,42.805,6.029,-0.08,0.061,-0.008,103.0,102.0,102.0,13.4,1505.2,340.0,-0.8,1.8,2471.601,13.29,0.1,307.3
2023-10-27T08:04:03,42.805,6.029,-0.07,0.039,-0.013,103.0,103.0,102.0,13.3,1505.2,334.2,-0.8,1.8,2471.658,13.29,0.08,299.1
2023-10-27T08:07:03,42.805,6.029,-0.048,0.057,0.003,103.0,103.0,102.0,13.3,1505.2,337.0,-0.8,1.8,2471.658,13.29,0.074,319.9
2023-10-27T08:10:03,42.805,6.029,-0.064,0.038,-0.028,104.0,103.0,102.0,13.3,1505.2,352.4,-0.7,1.8,2471.658,13.29,0.074,300.7
2023-10-27T08:13:03,42.805,6.029,-0.041,0.035,-0.029,104.0,104.0,102.0,13.4,1505.2,358.0,-0.8,1.8,2471.615,13.29,0.053,310.5
2023-10-27T08:16:03,42.805,6.029,-0.049,0.02,-0.014,104.0,103.0,102.0,13.3,1505.2,359.0,-0.8,1.8,2471.627,13.29,0.052,292.2
2023-10-27T08:19:03,42.805,6.029,-0.028,0.046,-0.01,104.0,103.0,102.0,13.3,1505.2,357.3,-0.8,1.8,2471.6,13.29,0.053,328.7
2023-10-27T08:22:03,42.805,6.029,-0.047,0.034,0.0,103.0,102.0,102.0,13.4,1505.2,357.3,-0.7,1.8,2471.609,13.29,0.058,305.9
2023-10-27T08:25:03,42.805,6.029,-0.018,0.026,-0.008,104.0,103.0,102.0,13.3,1505.2,356.0,-0.8,1.8,2471.608,13.29,0.031,325.3
2023-10-27T08:28:03,42.805,6.029,-0.055,0.03,-0.001,104.0,102.0,103.0,13.3,1505.2,341.2,-0.8,1.8,2471.642,13.29,0.062,298.6
2023-10-27T08:31:03,42.805,6.029,-0.055,0.027,-0.028,104.0,103.0,102.0,13.4,1505.2,340.4,-0.8,1.8,2471.603,13.29,0.061,296.1
2023-10-27T08:34:03,42.805,6.029,-0.059,0.024,-0.032,102.0,103.0,103.0,13.4,1505.2,344.2,-0.8,1.8,2471.618,13.29,0.063,292.1
2023-10-27T08:37:03,42.805,6.029,-0.055,0.024,-0.017,104.0,104.0,101.0,13.4,1505.2,334.5,-0.7,1.8,2471.594,13.29,0.06,293.6
2023-10-27T08:40:03,42.805,6.029,-0.083,0.044,-0.038,104.0,104.0,102.0,13.3,1505.2,347.8,-0.8,1.8,2471.637,13.29,0.093,297.9
2023-10-27T08:43:03,42.805,6.029,-0.054,0.039,-0.024,104.0,103.0,104.0,13.3,1505.2,342.8,-0.8,1.8,2471.599,13.29,0.066,305.8
2023-10-27T08:46:03,42.805,6.029,-0.061,0.035,-0.029,104.0,103.0,102.0,13.4,1505.2,351.1,-0.8,1.8,2471.555,13.29,0.07,299.8
2023-10-27T08:49:03,42.805,6.029,-0.029,0.042,-0.033,103.0,103.0,103.0,13.3,1505.2,338.7,-0.8,1.8,2471.6,13.29,0.051,325.4
2023-10-27T08:52:03,42.805,6.029,-0.056,0.052,-0.024,105.0,103.0,102.0,13.4,1505.2,357.1,-0.8,1.8,2471.61,13.29,0.076,312.9
2023-10-27T08:55:03,42.805,6.029,-0.031,0.027,-0.017,104.0,102.0,102.0,13.4,1505.2,359.1,-0.8,1.8,2471.568,13.29,0.041,311.1
2023-10-27T08:58:03,42.805,6.029,-0.043,0.023,-0.028,103.0,103.0,102.0,13.4,1505.2,359.0,-0.8,1.8,2471.605,13.29,0.048,298.1
2023-10-27T09:04:03,42.805,6.029,-0.046,0.034,-0.005,104.0,103.0,102.0,13.4,1505.2,338.3,-0.8,1.8,2471.652,13.29,0.057,306.5
2023-10-27T09:07:03,42.805,6.029,-0.055,0.028,-0.027,104.0,103.0,103.0,13.4,1505.2,340.0,-0.8,1.8,2471.571,13.29,0.061,297.0
2023-10-27T09:10:03,42.805,6.029,-0.047,0.057,-0.004,104.0,103.0,102.0,13.4,1505.2,349.7,-0.7,1.8,2471.619,13.29,0.073,320.5
2023-10-27T09:13:03,42.805,6.029,-0.059,0.044,-0.035,104.0,103.0,102.0,13.4,1505.2,341.3,-0.8,1.8,2471.595,13.29,0.073,306.7
2023-10-27T09:16:03,42.805,6.029,-0.037,0.052,-0.008,105.0,104.0,102.0,13.4,1505.2,355.9,-0.8,1.8,2471.615,13.29,0.063,324.6
2023-10-27T09:19:03,42.805,6.029,-0.036,0.026,-0.005,102.0,102.0,103.0,13.4,1505.2,351.0,-0.8,1.8,2471.566,13.29,0.044,305.8
2023-10-27T09:22:03,42.805,6.029,-0.062,0.04,-0.004,103.0,105.0,103.0,13.4,1505.2,340.9,-0.8,1.8,2471.613,13.29,0.073,302.8
2023-10-27T09:25:03,42.805,6.029,-0.059,0.013,-0.046,104.0,103.0,103.0,13.4,1505.2,333.0,-0.8,1.8,2471.578,13.29,0.06,282.4
2023-10-27T09:28:03,42.805,6.029,-0.051,0.025,-0.038,104.0,104.0,102.0,13.4,1505.2,346.3,-0.7,1.8,2471.589,13.29,0.056,296.1
2023-10-27T09:31:03,42.805,6.029,-0.03,0.067,-0.018,105.0,102.0,102.0,13.4,1505.2,359.0,-0.7,1.8,2471.524,13.29,0.073,335.9
2023-10-27T09:34:03,42.805,6.029,-0.028,0.039,-0.007,104.0,103.0,103.0,13.3,1505.2,350.2,-0.8,1.8,2471.581,13.29,0.048,324.3
2023-10-27T09:37:03,42.805,6.029,-0.05,0.046,-0.005,104.0,103.0,102.0,13.4,1505.2,345.7,-0.8,1.8,2471.565,13.29,0.067,312.6
2023-10-27T09:40:03,42.805,6.029,-0.054,0.041,0.001,104.0,104.0,103.0,13.4,1505.2,338.2,-0.8,1.8,2471.572,13.29,0.067,307.2
2023-10-27T09:43:03,42.805,6.029,-0.074,0.043,-0.027,104.0,103.0,102.0,13.3,1505.2,338.4,-0.7,1.9,2471.568,13.29,0.085,300.2
2023-10-27T09:46:03,42.805,6.029,-0.017,0.013,-0.013,104.0,103.0,102.0,13.4,1505.2,346.8,-0.8,1.8,2471.504,13.29,0.021,307.4
2023-10-27T09:49:03,42.805,6.029,-0.053,0.05,-0.026,104.0,103.0,101.0,13.4,1505.2,351.8,-0.8,1.8,2471.566,13.29,0.072,313.3
2023-10-27T09:52:03,42.805,6.029,-0.055,0.026,-0.016,104.0,103.0,101.0,13.4,1505.2,338.6,-0.8,1.8,2471.548,13.29,0.06,295.3
2023-10-27T09:55:03,42.805,6.029,-0.062,0.015,-0.022,104.0,104.0,102.0,13.4,1505.2,331.4,-0.8,1.8,2471.528,13.29,0.063,283.6